Regional Weather Roundup
Issued by NWS

Home | Current Version | Previous Version | Graphics & Text | Print | Product List | Glossary On
Versions: 1 2 3 4 5 6 7 8 9 10 11 12 13 14 15 16 17 18 19 20 21 22 23 24 25 26 27 28 29 30 31 32 33 34 35 36 37 38 39 40 41 42 43 44 45 46 47 48 49 50
000
ASUS43 KMPX 201701
RWRMN
WEATHER ROUNDUP FOR MINNESOTA
NATIONAL WEATHER SERVICE TWIN CITIES/CHANHASSEN MN
1200 PM CDT FRI OCT 20 2017


NOTE: "FAIR" INDICATES FEW OR NO CLOUDS BELOW 12,000 FEET WITH NO
SIGNIFICANT WEATHER AND/OR OBSTRUCTIONS TO VISIBILITY. N/A MEANS
CURRENT SKY AND/OR WEATHER CONDITIONS ARE NOT AVAILABLE.

MNZ060>063-068>070-201800-
   Twin Cities Metro

CITY           SKY/WX    TMP DP  RH WIND       PRES   REMARKS
TWIN CITIES    SUNNY     72  52  49 S13G22    29.85F
ST PAUL        SUNNY     71  53  52 S14       29.86F
CRYSTAL        SUNNY     72  49  44 S15G22    29.83F
BLAINE         MOSUNNY   72  52  49 S13G23    29.84F
LAKEVILLE      SUNNY     72  52  49 S16       29.86F
EDEN PRAIRIE   SUNNY     73  52  47 S15G22    29.83F
SOUTH ST PAUL  SUNNY     72  50  46 S16G22    29.86F
LAKE ELMO      FAIR      70  52  52 S16G22    29.87F
$$
MNZ001>005-007-008-013>017-022>024-027-028-201800-
   Northwest Minnesota

CITY           SKY/WX    TMP DP  RH WIND       PRES   REMARKS
BEMIDJI        SUNNY     69  49  48 S14       29.65F
HALLOCK        MOSUNNY   70  48  46 S28       29.48F
ROSEAU         SUNNY     70  54  56 S14G20    29.55F
WARROAD        SUNNY     68  54  60 SE13      29.58F
CROOKSTON      SUNNY     72  48  43 S25G32    29.53F
FOSSTON        SUNNY     72  46  40 S16       29.59F
DETROIT LAKES  SUNNY     66  50  55 S20G25    29.64F
MOORHEAD       SUNNY     68  48  49 S20G26    29.58F
PARK RAPIDS    SUNNY     68  50  52 SE20      29.67F
MAHNOMEN       FAIR      70  49  46 S13G23    29.59F
$$
MNZ006-009>011-018-025>026-201800-
   North Central Minnesota

CITY           SKY/WX    TMP DP  RH WIND       PRES   REMARKS
BAUDETTE       SUNNY     68  50  52 S14       29.62F
FLAG ISLAND    SUNNY     55  48  76 S7        29.58F
INTL FALLS     SUNNY     69  47  45 SE9       29.67F
WASKISH        MOSUNNY   70  52  52 SE12G18   29.63F
BIG FORK       SUNNY     66  48  52 S10G16    29.70F
LONGVILLE      SUNNY     68  48  49 S13       29.71F
GRAND RAPIDS   SUNNY     66  50  56 S18       29.75F
CRANE LAKE     SUNNY     64  48  55 S8        29.74F
ORR            SUNNY     68  45  42 S14G21    29.70F
COOK           SUNNY     66  48  52 SE12      29.75F
WALKER         FAIR      68  50  51 SE6       29.68F
$$
MNZ012-019>021-037-201800-
   Northeast Minnesota

CITY           SKY/WX    TMP DP  RH WIND       PRES   REMARKS
DULUTH         SUNNY     67  51  56 S13       29.81F
ELY            SUNNY     66  46  48 S14       29.77F
HIBBING        SUNNY     66  48  52 S13G20    29.77F
EVELETH        SUNNY     66  40  38 S13       29.78F
DULUTH HARBOR  SUNNY     70  54  56 S15       29.81F
TWO HARBORS    SUNNY     68  54  60 S12       29.80F
SILVER BAY     SUNNY     64  50  59 S12G17    29.81F
GRAND MARAIS     N/A     52  44  74 E3        29.84F
G MARAIS ARPRT SUNNY     63  45  51 S8        29.86S
$$
MNZ029>031-032-039>041-046>048-054>057-064-201800-
   West Central Minnesota

CITY           SKY/WX    TMP DP  RH WIND       PRES   REMARKS
FERGUS FALLS   SUNNY     66  52  59 S23G31    29.64F
WHEATON        SUNNY     70  48  46 S23G29    29.63F
MORRIS         SUNNY     70  52  52 S21G28    29.67F
ALEXANDRIA     SUNNY     67  51  56 S18       29.72F
ELBOW LAKE     FAIR      66  51  59 S21G29    29.67F
WADENA         SUNNY     66  52  59 S20       29.68F
GLENWOOD       SUNNY     66  52  59 S21       29.73F
APPLETON       MOSUNNY   68  50  52 S13G23    29.68F
BENSON         SUNNY     70  52  52 SW18G26   29.72F
ORTONVILLE     MOSUNNY   66  50  55 N17G23    29.66F
MADISON        PTSUNNY   72  52  49 S18G25    29.68F
WILLMAR        FAIR      72  52  49 S14G22    29.76F
$$
MNZ033>034-036-042>043-049>051-058-059-201800-
   Central Minnesota

CITY           SKY/WX    TMP DP  RH WIND       PRES   REMARKS
ST CLOUD       SUNNY     68  52  56 S16       29.78F
SAUK CENTRE    FAIR      68  52  56 S15       29.75F
PAYNESVILLE    SUNNY     68  52  56 S14G22    29.77F
AITKIN         SUNNY     64  48  55 S15       29.75F
PINE RIVER     SUNNY     63  48  59 S14G20    29.76F
BRAINERD       SUNNY     65  50  58 S20       29.76F
STAPLES        SUNNY     66  48  52 S14G21    29.72F
LONG PRAIRIE   FAIR      66  50  55 SE17      29.75F
LITTLE FALLS   SUNNY     68  43  40 S10       29.77F
LITCHFIELD     SUNNY     70  54  56 S5        29.79F
BUFFALO        SUNNY     70  50  48 S10G16    29.82F
MAPLE LAKE     SUNNY     70  54  55 S13G18    29.82F
HUTCHINSON     MOSUNNY   69  53  57 S10       29.81F
$$
MNZ037-044-045-052-053-201800-
   East Central Minnesota

CITY           SKY/WX    TMP DP  RH WIND       PRES   REMARKS
PRINCETON      SUNNY     72  52  49 S9G20     29.81F
MORA           SUNNY     68  50  52 S12         N/A
CAMBRIDGE      SUNNY     72  54  53 S10       29.82F
RUSH CITY      SUNNY     68  51  53 S13G20    29.84F
MOOSE LAKE     SUNNY     68  50  52 S9        29.80F
HINCKLEY       FAIR      68  52  56 S13G18    29.83F
CLOQUET        SUNNY     66  46  48 S14       29.81F
MCGREGOR       SUNNY     68  50  52 S12       29.79F
$$
MNZ071>073-080-081-089-090-097-098-201800-
   Southwest Minnesota

CITY           SKY/WX    TMP DP  RH WIND       PRES   REMARKS
MONTEVIDEO     MOSUNNY   72  52  49 SW16G25   29.72F
GRANITE FALLS  SUNNY     71  54  55 S17G25    29.75F
CANBY          PTSUNNY   68  52  55 S16G24    29.70F
MARSHALL       MOSUNNY   70  53  54 S24       29.72F
REDWOOD FALLS  SUNNY     70  51  51 S18G28    29.77F
OLIVIA         SUNNY     70  52  52 S18       29.76F
PIPESTONE      SUNNY     64  52  63 S23G31    29.75F
WORTHINGTON    SUNNY     70  52  52 S21G30    29.81F
JACKSON        SUNNY     70  52  52 S23       29.84F
TRACY          MOSUNNY   71  54  56 S20G25    29.76F
SLAYTON        MOSUNNY   68  52  57 S21G29    29.78F
$$
MNZ065>067-074>077-082>085-091>093-201800-
   South Central Minnesota

CITY           SKY/WX    TMP DP  RH WIND       PRES   REMARKS
MANKATO        SUNNY     72  52  49 S18       29.85F
NEW ULM        SUNNY     70  52  52 S16G25    29.81F
ST JAMES       SUNNY     70  52  52 S20G31    29.84F
FAIRMONT       SUNNY     67  53  61 S22       29.86F
GLENCOE        SUNNY     71  51  50 S13G22    29.82F
FARIBAULT      SUNNY     72  52  49 S14G23    29.89F
OWATONNA       SUNNY     70  54  56 S12G21    29.90F
WASECA         SUNNY     72  50  46 S14G24    29.89F
$$
MNZ078>079-086>088-094>096-201800-
   Southeast Minnesota

CITY           SKY/WX    TMP DP  RH WIND       PRES   REMARKS
ROCHESTER      SUNNY     70  53  54 S20       29.96F
RED WING       SUNNY     73  46  38 SW14G21   29.89F
STANTON        SUNNY     72  52  49 S13G23    29.88F
DODGE CENTER   SUNNY     68  50  52 S20G25    29.93F
WINONA         SUNNY     73  54  49 SW9       29.96F
AUSTIN         SUNNY     68  54  60 S14G22    29.94F
PRESTON        SUNNY     69  51  54 S17       29.98F
$$
ABBREVIATIONS USED IN REMARKS
   TC - TEMPERATURES IN CELSIUS
  WCI - WIND CHILL INDEX
   HX - HEAT INDEX
  VSB - VISIBILITY
$$



USA.gov is the U.S. government's official web portal to all federal, state and local government web resources and services.